Time,TemperatureF,DewpointF,PressureIn,WindDirection,WindDirectionDegrees,WindSpeedMPH,WindSpeedGustMPH,Humidity,HourlyPrecipIn,Conditions,Clouds,dailyrainin,SoftwareType,DateUTC
2013-08-08 00:00:00,69.0,63.0,30.03,SSW,209,3.0,15.0,83,0.00,,,-99.99,,2013-08-08 04:00:00,
2013-08-08 00:33:00,69.0,63.0,30.03,SSW,209,3.0,15.0,83,0.00,,,-99.99,,2013-08-08 04:33:00,
2013-08-08 00:44:00,69.0,63.0,30.03,SSW,209,3.0,15.0,83,0.00,,,-99.99,,2013-08-08 04:44:00,
2013-08-08 00:53:00,69.0,63.0,30.03,SSW,209,3.0,15.0,83,0.00,,,-99.99,,2013-08-08 04:53:00,
2013-08-08 01:00:00,69.0,63.0,30.02,South,191,7.0,15.0,82,0.00,,,-99.99,,2013-08-08 05:00:00,
2013-08-08 01:33:00,69.0,63.0,30.02,South,191,7.0,15.0,82,0.00,,,-99.99,,2013-08-08 05:33:00,
2013-08-08 01:43:00,69.0,63.0,30.02,South,191,7.0,15.0,82,0.00,,,-99.99,,2013-08-08 05:43:00,
2013-08-08 01:52:00,69.0,63.0,30.02,South,191,7.0,15.0,82,0.00,,,-99.99,,2013-08-08 05:52:00,
2013-08-08 02:00:00,69.0,64.0,30.01,SSW,195,13.0,17.0,82,0.00,,,-99.99,,2013-08-08 06:00:00,
2013-08-08 02:32:00,69.0,64.0,30.01,SSW,195,13.0,17.0,82,0.00,,,-99.99,,2013-08-08 06:32:00,
2013-08-08 02:43:00,69.0,64.0,30.01,SSW,195,13.0,17.0,82,0.00,,,-99.99,,2013-08-08 06:43:00,
2013-08-08 02:52:00,69.0,64.0,30.01,SSW,195,13.0,17.0,82,0.00,,,-99.99,,2013-08-08 06:52:00,
2013-08-08 03:00:00,68.0,64.0,29.99,SSW,193,8.0,18.0,86,0.00,,,-99.99,,2013-08-08 07:00:00,
2013-08-08 03:32:00,68.0,64.0,29.99,SSW,193,8.0,18.0,86,0.00,,,-99.99,,2013-08-08 07:32:00,
2013-08-08 03:43:00,68.0,64.0,29.99,SSW,193,8.0,18.0,86,0.00,,,-99.99,,2013-08-08 07:43:00,
2013-08-08 03:53:00,68.0,64.0,29.99,SSW,193,8.0,18.0,86,0.00,,,-99.99,,2013-08-08 07:53:00,
2013-08-08 04:00:00,68.0,64.0,29.99,SW,216,9.0,14.0,87,0.00,,,-99.99,,2013-08-08 08:00:00,
2013-08-08 04:43:00,68.0,64.0,29.99,SW,216,9.0,14.0,87,0.00,,,-99.99,,2013-08-08 08:43:00,
2013-08-08 04:53:00,68.0,64.0,29.99,SW,216,9.0,14.0,87,0.00,,,-99.99,,2013-08-08 08:53:00,
2013-08-08 05:00:00,68.0,64.0,29.98,SSW,195,7.0,16.0,87,0.00,,,-99.99,,2013-08-08 09:00:00,
2013-08-08 05:32:00,68.0,64.0,29.98,SSW,195,7.0,16.0,87,0.00,,,-99.99,,2013-08-08 09:32:00,
2013-08-08 05:43:00,68.0,64.0,29.98,SSW,195,7.0,16.0,87,0.00,,,-99.99,,2013-08-08 09:43:00,
2013-08-08 05:53:00,68.0,64.0,29.98,SSW,195,7.0,16.0,87,0.00,,,-99.99,,2013-08-08 09:53:00,
2013-08-08 06:00:00,68.0,64.0,29.99,SSW,208,11.0,14.0,87,0.00,,,-99.99,,2013-08-08 10:00:00,
2013-08-08 06:33:00,68.0,64.0,29.99,SSW,208,11.0,14.0,87,0.00,,,-99.99,,2013-08-08 10:33:00,
2013-08-08 06:43:00,68.0,64.0,29.99,SSW,208,11.0,14.0,87,0.00,,,-99.99,,2013-08-08 10:43:00,
2013-08-08 06:52:00,68.0,64.0,29.99,SSW,208,11.0,14.0,87,0.00,,,-99.99,,2013-08-08 10:52:00,
2013-08-08 07:00:00,67.0,65.0,30.01,South,188,4.0,11.0,92,0.01,,,-99.99,,2013-08-08 11:00:00,
2013-08-08 07:32:00,67.0,65.0,30.01,South,188,4.0,11.0,92,0.01,,,-99.99,,2013-08-08 11:32:00,
2013-08-08 07:43:00,67.0,65.0,30.01,South,188,4.0,11.0,92,0.01,,,-99.99,,2013-08-08 11:43:00,
2013-08-08 07:52:00,67.0,65.0,30.01,South,188,4.0,11.0,92,0.01,,,-99.99,,2013-08-08 11:52:00,
2013-08-08 08:00:00,67.0,66.0,30.02,SW,226,6.0,10.0,94,0.07,,,-99.99,,2013-08-08 12:00:00,
2013-08-08 08:32:00,67.0,66.0,30.02,SW,226,6.0,10.0,94,0.07,,,-99.99,,2013-08-08 12:32:00,
2013-08-08 08:43:00,67.0,66.0,30.02,SW,226,6.0,10.0,94,0.07,,,-99.99,,2013-08-08 12:43:00,
2013-08-08 08:53:00,67.0,66.0,30.02,SW,226,6.0,10.0,94,0.07,,,-99.99,,2013-08-08 12:53:00,
2013-08-08 09:00:00,69.0,67.0,30.03,SW,223,6.0,10.0,92,0.00,,,-99.99,,2013-08-08 13:00:00,
2013-08-08 09:32:00,69.0,67.0,30.03,SW,223,6.0,10.0,92,0.00,,,-99.99,,2013-08-08 13:32:00,
2013-08-08 09:43:00,69.0,67.0,30.03,SW,223,6.0,10.0,92,0.00,,,-99.99,,2013-08-08 13:43:00,
2013-08-08 09:53:00,69.0,67.0,30.03,SW,223,6.0,10.0,92,0.00,,,-99.99,,2013-08-08 13:53:00,
2013-08-08 10:00:00,75.0,67.0,30.01,SSW,211,15.0,18.0,78,0.00,,,-99.99,,2013-08-08 14:00:00,
2013-08-08 10:43:00,75.0,67.0,30.01,SSW,211,15.0,18.0,78,0.00,,,-99.99,,2013-08-08 14:43:00,
2013-08-08 10:53:00,75.0,67.0,30.01,SSW,211,15.0,18.0,78,0.00,,,-99.99,,2013-08-08 14:53:00,
2013-08-08 11:00:00,74.0,67.0,30.01,SW,226,10.0,22.0,79,0.00,,,-99.99,,2013-08-08 15:00:00,
2013-08-08 11:33:00,74.0,67.0,30.01,SW,226,10.0,22.0,79,0.00,,,-99.99,,2013-08-08 15:33:00,
2013-08-08 11:43:00,74.0,67.0,30.01,SW,226,10.0,22.0,79,0.00,,,-99.99,,2013-08-08 15:43:00,
2013-08-08 11:53:00,74.0,67.0,30.01,SW,226,10.0,22.0,79,0.00,,,-99.99,,2013-08-08 15:53:00,
2013-08-08 13:00:00,76.0,68.0,29.99,SSE,149,13.0,15.0,75,0.00,,,-99.99,,2013-08-08 17:00:00,
2013-08-08 13:32:00,76.0,68.0,29.99,SSE,149,13.0,15.0,75,0.00,,,-99.99,,2013-08-08 17:32:00,
2013-08-08 13:43:00,76.0,68.0,29.99,SSE,149,13.0,15.0,75,0.00,,,-99.99,,2013-08-08 17:43:00,
2013-08-08 13:52:00,76.0,68.0,29.99,SSE,149,13.0,15.0,75,0.00,,,-99.99,,2013-08-08 17:52:00,
2013-08-08 14:00:00,78.0,67.0,29.99,South,189,9.0,17.0,70,0.00,,,-99.99,,2013-08-08 18:00:00,
2013-08-08 14:32:00,78.0,67.0,29.99,South,189,9.0,17.0,70,0.00,,,-99.99,,2013-08-08 18:32:00,
2013-08-08 15:00:00,77.0,67.0,29.99,SSW,196,11.0,17.0,73,0.00,,,-99.99,,2013-08-08 19:00:00,
2013-08-08 15:32:00,77.0,67.0,29.99,SSW,196,11.0,17.0,73,0.00,,,-99.99,,2013-08-08 19:32:00,
2013-08-08 15:43:00,77.0,67.0,29.99,SSW,196,11.0,17.0,73,0.00,,,-99.99,,2013-08-08 19:43:00,
2013-08-08 15:59:00,77.0,67.0,29.99,SSW,196,11.0,17.0,73,0.00,,,-99.99,,2013-08-08 19:59:00,
2013-08-08 17:00:00,77.0,66.0,29.97,SSW,194,8.0,19.0,68,0.00,,,-99.99,,2013-08-08 21:00:00,
2013-08-08 17:46:00,77.0,66.0,29.97,SSW,194,8.0,19.0,68,0.00,,,-99.99,,2013-08-08 21:46:00,
2013-08-08 17:57:00,77.0,66.0,29.97,SSW,194,8.0,19.0,68,0.00,,,-99.99,,2013-08-08 21:57:00,
2013-08-08 18:00:00,74.0,66.0,29.97,SSW,192,11.0,19.0,77,0.00,,,-99.99,,2013-08-08 22:00:00,
2013-08-08 18:49:00,74.0,66.0,29.97,SSW,192,11.0,19.0,77,0.00,,,-99.99,,2013-08-08 22:49:00,
2013-08-08 18:58:00,74.0,66.0,29.97,SSW,192,11.0,19.0,77,0.00,,,-99.99,,2013-08-08 22:58:00,
2013-08-08 19:00:00,72.0,66.0,29.98,SSW,201,10.0,16.0,81,0.00,,,-99.99,,2013-08-08 23:00:00,
2013-08-08 19:37:00,72.0,66.0,29.98,SSW,201,10.0,16.0,81,0.00,,,-99.99,,2013-08-08 23:37:00,
2013-08-08 19:57:00,72.0,66.0,29.98,SSW,201,10.0,16.0,81,0.00,,,-99.99,,2013-08-08 23:57:00,
2013-08-08 20:00:00,71.0,67.0,29.99,SSW,208,9.0,16.0,87,0.00,,,-99.99,,2013-08-09 00:00:00,
2013-08-08 20:35:00,71.0,67.0,29.99,SSW,208,9.0,16.0,87,0.00,,,-99.99,,2013-08-09 00:35:00,
2013-08-08 20:48:00,71.0,67.0,29.99,SSW,208,9.0,16.0,87,0.00,,,-99.99,,2013-08-09 00:48:00,
2013-08-08 20:57:00,71.0,67.0,29.99,SSW,208,9.0,16.0,87,0.00,,,-99.99,,2013-08-09 00:57:00,
2013-08-08 21:00:00,71.0,67.0,29.99,South,186,8.0,15.0,89,0.00,,,-99.99,,2013-08-09 01:00:00,
2013-08-08 21:38:00,71.0,67.0,29.99,South,186,8.0,15.0,89,0.00,,,-99.99,,2013-08-09 01:38:00,
2013-08-08 22:00:00,70.0,67.0,30.01,South,186,6.0,15.0,91,0.00,,,-99.99,,2013-08-09 02:00:00,
2013-08-08 22:39:00,70.0,67.0,30.01,South,186,6.0,15.0,91,0.00,,,-99.99,,2013-08-09 02:39:00,
2013-08-08 22:47:00,70.0,67.0,30.01,South,186,6.0,15.0,91,0.00,,,-99.99,,2013-08-09 02:47:00,
2013-08-08 22:57:00,70.0,67.0,30.01,South,186,6.0,15.0,91,0.00,,,-99.99,,2013-08-09 02:57:00,
2013-08-08 23:00:00,71.0,68.0,29.99,SSW,196,7.0,14.0,91,0.00,,,-99.99,,2013-08-09 03:00:00,
2013-08-08 23:36:00,71.0,68.0,29.99,SSW,196,7.0,14.0,91,0.00,,,-99.99,,2013-08-09 03:36:00,
2013-08-08 23:47:00,71.0,68.0,29.99,SSW,196,7.0,14.0,91,0.00,,,-99.99,,2013-08-09 03:47:00,
2013-08-08 23:56:00,71.0,68.0,29.99,SSW,196,7.0,14.0,91,0.00,,,-99.99,,2013-08-09 03:56:00,